DECAYED
Showing default

DJIBOUTI-1A, 58266 (Decayed)

Orbit data source: Space-Track

DJIBOUTI-1A, 58266 was a Djibouti payload satellite in LEO that was launched on Sat, 11 Nov 2023 UTC via an FALCON 9 launch vehicle from the Air Force Western Test Range (AFWTR). Payload-class satellites include a variety of spacecraft equipped with specific instruments for various scientific and technological missions. These include communications satellites like Starlink; space stations such as the ISS; scientific satellites like the Hubble; Earth observation satellites from companies like Planet Labs, Umbra, and HawkEye 360; GPS; miniature CubeSats for education and research; and military/defense satellites.

Not visible in the next 10 days
Identifier
58266, 2023-174L
Orbit
Decayed
Country
Flag of DJDJ / DJI
Related business
Manufacturer
Montpellier
Mission
Decayed Civil Technology
Bus & Motor
CUBESAT 1U, Unknown motor
Mass
1 kg wet, 1 kg dry
Launch date (UTC)
2023-11-11 (3 years ago)
Launch vehicle
FALCON 9
Launch site
Air Force Western Test Range (AFWTR)
Object type
Payload
Rocket body
Debris
Shape & HBR
Box, 0.1 m
Radar Cross Section
0.015 m², Medium (>0.1 m² and < 1m²)

Expand to show TLE details & history
Last TLE update: 10 months ago

TLE from 10 months ago
0 DJIBOUTI-1A
1 58266U 23174L   25245.52505284  .08555429  25090-5  11614-2 0  9997
2 58266  97.3833 337.9341 0013709 274.4654  85.5077 16.35055940102074
Epoch: 2025-09-02T12:36Z
TLE epoch observation values (Epoch: 2025-09-02T12:36:04.565Z)
Latitude
0.00002°
Longitude
167.00003°
Altitude
181.541 km
Speed
7.798 km/s
True Right ascension
22h 31m 44s
True Declination
0° 00' 00"
Sunlit
Object was in full shadow at epoch
Visualization orbit readout
Latitude
Unknown
Longitude
Unknown
Altitude
Unknown
Speed
Unknown
Apparent Right ascension
Unknown
Apparent Declination
Unknown
Sunlit
N/A
Visualization observer readout
Local Sidereal Time
19:50:25
Azimuth
Unknown
Elevation
Unknown
Doppler factor
Unknown
Orbital elements
Apogee altitude
184.786 km
Perigee altitude
166.816 km
Semi-major axis
6,553.938 km
Eccentricity
0.00137
Inclination
97.3833°
RAAN
337.9341°
Arg. of periapsis
274.4654°
True anomaly
85.66433°
Mean anomaly
85.5077°
Eccentric anomaly
85.58601°
Mean motion
4.09063 °/min
Orbital period
88.01 mins
BSTAR
0.0011614
Loading maneuver chart data...
Computing Atmospheric mass density...

Documentation

Showing up to 5 results
|